Weather History for North Bend, OR

Change the Weather History Date:

Friday, October 22, 2010

  Actual Average Record
Temperature  
Mean Temperature 55 °F 53 °F  
Max Temperature 63 °F 60 °F 85 °F (1922)
Min Temperature 46 °F 45 °F 30 °F (1928)
Degree Days  
Heating Degree Days 10 12  
Month to date heating degree days 211 242  
Since 1 July heating degree days 884 850  
Cooling Degree Days 0 0  
Month to date cooling degree days 0 0  
Year to date cooling degree days 3 2  
Growing Degree Days 4 (Base 50)    
Moisture  
Dew Point 48 °F    
Average Humidity 82    
Maximum Humidity 100    
Minimum Humidity 57    
Precipitation  
Precipitation 0.00 in 0.18 in 2.00 in (1931)
Month to date precipitation 0.74 2.79  
Year to date precipitation 43.83 41.61  
Sea Level Pressure  
Sea Level Pressure 30.00 in    
Wind  
Wind Speed 7 mph (South)    
Max Wind Speed 13 mph    
Max Gust Speed 20 mph    
Visibility 10 miles    
Events      
T = Trace of Precipitation, MM = Missing Value Source: NWS Daily Summary

Daily Weather History Graph

Daily Weather History Graph

Search for Another Location

Airport:

Trip Planner

Search our weather history database for the weather conditions in past years. The results will help you decide how hot, cold, wet, or windy it might be!

Date:

Astronomy

Oct. 22, 2010 Rise Set
Actual Time 7:39 AM PDT 6:22 PM PDT
Civil Twilight 7:10 AM PDT 6:51 PM PDT
Nautical Twilight 6:37 AM PDT 7:24 PM PDT
Astronomical Twilight 6:04 AM PDT 7:57 PM PDT
Moon 5:52 PM PDT (10/22) 7:26 AM PDT (10/22)
Length of Visible Light 11h 41m
Length of Day
10h 42m
Full, 100% of the Moon is Illuminated
Oct 22
Full
Oct 22
Full
Oct 30
Last Quarter
Nov 5
New
Nov 13
First Quarter

Hourly Weather History & Observations

Time (PDT) Temp. Windchill Dew Point Humidity Pressure Visibility Wind Dir Wind Speed Gust Speed Precip Events Conditions
12:15 AM 55.4 °F - 50.0 °F 82% 30.01 in 10.0 mi SSE 8.1 mph - N/A   Overcast
12:35 AM 53.6 °F - 50.0 °F 88% 30.01 in 10.0 mi SSE 6.9 mph - N/A   Overcast
12:55 AM 53.6 °F - 50.0 °F 88% 30.02 in 10.0 mi South 3.5 mph - N/A   Overcast
1:15 AM 53.6 °F - 50.0 °F 88% 30.02 in 10.0 mi SSE 3.5 mph - N/A   Overcast
1:35 AM 53.6 °F - 50.0 °F 88% 30.02 in 10.0 mi South 5.8 mph - N/A   Overcast
1:55 AM 53.6 °F - 50.0 °F 88% 30.02 in 10.0 mi SSE 8.1 mph - N/A   Overcast
2:15 AM 53.6 °F - 50.0 °F 88% 30.02 in 10.0 mi South 6.9 mph - N/A   Overcast
2:35 AM 53.6 °F - 50.0 °F 88% 30.02 in 10.0 mi South 6.9 mph - N/A   Overcast
2:55 AM 53.6 °F - 50.0 °F 88% 30.02 in 10.0 mi South 6.9 mph - N/A   Overcast
3:15 AM 53.6 °F - 50.0 °F 88% 30.02 in 10.0 mi South 6.9 mph - N/A   Overcast
3:35 AM 53.6 °F - 50.0 °F 88% 30.01 in 10.0 mi South 8.1 mph - N/A   Mostly Cloudy
3:55 AM 51.8 °F - 48.2 °F 88% 30.01 in 10.0 mi South 6.9 mph - N/A   Clear
4:15 AM 51.8 °F - 48.2 °F 88% 30.02 in 10.0 mi South 4.6 mph - N/A   Clear
4:35 AM 51.8 °F - 48.2 °F 88% 30.02 in 10.0 mi South 5.8 mph - N/A   Clear
4:55 AM 50.0 °F - 46.4 °F 87% 30.02 in 10.0 mi South 3.5 mph - N/A   Clear
5:15 AM 51.8 °F - 48.2 °F 88% 30.03 in 10.0 mi SSW 5.8 mph - N/A   Clear
5:35 AM 51.8 °F - 48.2 °F 88% 30.02 in 10.0 mi South 6.9 mph - N/A   Clear
5:55 AM 51.8 °F - 48.2 °F 88% 30.02 in 10.0 mi South 8.1 mph - N/A   Clear
6:15 AM 50.0 °F - 48.2 °F 94% 30.02 in 10.0 mi SE 9.2 mph - N/A   Clear
6:35 AM 51.8 °F - 48.2 °F 88% 30.02 in 10.0 mi SE 10.4 mph - N/A   Clear
6:55 AM 48.2 °F - 48.2 °F 100% 30.02 in 10.0 mi SSE 9.2 mph - N/A   Clear
7:15 AM 48.2 °F - 48.2 °F 100% 30.03 in 10.0 mi South 6.9 mph - N/A   Clear
7:35 AM 46.4 °F 43.5 °F 44.6 °F 93% 30.02 in 10.0 mi SSE 5.8 mph - N/A   Clear
7:55 AM 46.4 °F 43.5 °F 46.4 °F 100% 30.02 in 10.0 mi SSE 5.8 mph - N/A   Clear
8:15 AM 48.2 °F - 48.2 °F 100% 30.02 in 10.0 mi SE 6.9 mph - N/A   Clear
8:35 AM 50.0 °F - 48.2 °F 94% 30.02 in 3.0 mi ESE 6.9 mph - N/A   Partly Cloudy
8:55 AM 51.8 °F - 51.8 °F 100% 30.02 in 10.0 mi SE 5.8 mph - N/A   Clear
9:15 AM 53.6 °F - 51.8 °F 94% 30.03 in 10.0 mi SSE 8.1 mph - N/A   Clear
9:35 AM 55.4 °F - 51.8 °F 88% 30.03 in 10.0 mi SSE 8.1 mph - N/A   Clear
9:55 AM - - - N/A% 30.02 in 10.0 mi SE 8.1 mph - N/A   Clear
10:15 AM - - - N/A% 30.01 in 10.0 mi SSE 6.9 mph - N/A   Clear
10:35 AM - - - N/A% 30.01 in 10.0 mi SSE 8.1 mph - N/A   Clear
10:55 AM - - - N/A% 30.01 in 10.0 mi SE 8.1 mph - N/A   Clear
11:15 AM 60.8 °F - 48.2 °F 63% 30.01 in 10.0 mi South 8.1 mph - N/A   Clear
11:35 AM 60.8 °F - 48.2 °F 63% 30.00 in 10.0 mi SSW 8.1 mph - N/A   Clear
11:55 AM 62.6 °F - 48.2 °F 59% 30.00 in 10.0 mi South 8.1 mph - N/A   Clear
12:15 PM 62.6 °F - 48.2 °F 59% 29.99 in 10.0 mi SW 6.9 mph 17.3 mph N/A   Partly Cloudy
12:35 PM - - - N/A% 29.98 in 10.0 mi SSW 5.8 mph - N/A   Partly Cloudy
12:55 PM - - - N/A% 29.97 in 10.0 mi SSW 12.7 mph - N/A   Clear
1:15 PM - - - N/A% 29.96 in 10.0 mi WSW 10.4 mph - N/A   Scattered Clouds
1:35 PM - - - N/A% 29.96 in 10.0 mi WSW 15.0 mph - N/A   Mostly Cloudy
1:55 PM - - - N/A% 29.95 in 10.0 mi WSW 11.5 mph - N/A   Mostly Cloudy
2:15 PM 60.8 °F - 48.2 °F 63% 29.96 in 10.0 mi WSW 12.7 mph - N/A   Mostly Cloudy
2:35 PM 60.8 °F - 46.4 °F 59% 29.95 in 10.0 mi WSW 10.4 mph 17.3 mph N/A   Mostly Cloudy
2:55 PM 59.0 °F - 46.4 °F 63% 29.94 in 10.0 mi SW 12.7 mph 19.6 mph N/A   Mostly Cloudy
3:15 PM 59.0 °F - 48.2 °F 67% 29.95 in 10.0 mi SSW 13.8 mph 20.7 mph N/A   Mostly Cloudy
3:35 PM 57.2 °F - 48.2 °F 72% 29.95 in 10.0 mi SSW 9.2 mph - N/A   Mostly Cloudy
3:55 PM 57.2 °F - 48.2 °F 72% 29.94 in 10.0 mi SSW 10.4 mph - N/A   Mostly Cloudy
4:15 PM 57.2 °F - 46.4 °F 67% 29.93 in 10.0 mi SSW 9.2 mph 17.3 mph N/A   Mostly Cloudy
4:35 PM 57.2 °F - 46.4 °F 67% 29.93 in 10.0 mi SSW 11.5 mph - N/A   Mostly Cloudy
4:55 PM 57.2 °F - 44.6 °F 63% 29.92 in 10.0 mi South 11.5 mph - N/A   Overcast
5:15 PM 57.2 °F - 44.6 °F 63% 29.92 in 10.0 mi South 12.7 mph 17.3 mph N/A   Overcast
5:35 PM 57.2 °F - 42.8 °F 59% 29.91 in 10.0 mi South 10.4 mph - N/A   Overcast
5:55 PM 57.2 °F - 42.8 °F 59% 29.91 in 10.0 mi South 6.9 mph - N/A   Overcast
6:15 PM 55.4 °F - 44.6 °F 67% 29.90 in 10.0 mi SSE 6.9 mph - N/A   Overcast
6:35 PM 55.4 °F - 44.6 °F 67% 29.89 in 10.0 mi South 4.6 mph - N/A   Mostly Cloudy
6:55 PM 53.6 °F - 44.6 °F 72% 29.87 in 10.0 mi SE 5.8 mph - N/A   Partly Cloudy
7:15 PM 55.4 °F - 42.8 °F 63% 29.87 in 10.0 mi South 5.8 mph - N/A   Clear
7:35 PM 53.6 °F - 42.8 °F 67% 29.87 in 10.0 mi South 6.9 mph - N/A   Clear
7:55 PM 55.4 °F - 42.8 °F 63% 29.86 in 10.0 mi South 4.6 mph - N/A   Scattered Clouds
8:15 PM 55.4 °F - 42.8 °F 63% 29.86 in 10.0 mi South 6.9 mph - N/A   Overcast
8:35 PM 53.6 °F - 42.8 °F 67% 29.85 in 10.0 mi South 5.8 mph - N/A   Overcast
8:55 PM 55.4 °F - 41.0 °F 58% 29.85 in 10.0 mi South 5.8 mph - N/A   Overcast
9:15 PM 55.4 °F - 42.8 °F 63% 29.85 in 10.0 mi South 4.6 mph - N/A   Overcast
9:35 PM 55.4 °F - 41.0 °F 58% 29.85 in 10.0 mi WSW 5.8 mph - N/A   Overcast
9:55 PM 53.6 °F - 44.6 °F 72% 29.85 in 10.0 mi SSE 3.5 mph - N/A   Overcast
10:15 PM 53.6 °F - 44.6 °F 72% 29.85 in 10.0 mi South 3.5 mph - N/A   Overcast
10:35 PM 51.8 °F - 46.4 °F 82% 29.84 in 10.0 mi SSE 4.6 mph - N/A   Overcast
10:55 PM 50.0 °F - 46.4 °F 87% 29.85 in 10.0 mi SE 4.6 mph - N/A   Overcast
11:15 PM 50.0 °F - 46.4 °F 87% 29.84 in 10.0 mi SE 5.8 mph - N/A   Overcast
11:35 PM 50.0 °F - 46.4 °F 87% 29.85 in 10.0 mi SSE 5.8 mph - N/A   Overcast
11:55 PM 50.0 °F - 46.4 °F 87% 29.84 in 10.0 mi SE 6.9 mph - N/A   Overcast